DW8398 Weather Reports


time (UTC)temp
C
wind
direction
speed
KPH
gust
KPH
rain 1hr
cm
rain 24hr
cm
rain mn
cm
humidity
%
barometer
mb
20260506143048 18 144 6.4 17.7 0.00 0.00 0.00 79 1007.8
20260506142540 18 163 6.4 17.7 0.00 0.00 0.00 79 1007.8
20260506142040 18 150 3.2 11.3 0.00 0.00 0.00 80 1007.9
20260506141545 18 174 3.2 9.7 0.00 0.00 0.00 81 1008.0
20260506141040 18 230 1.6 11.3 0.00 0.00 0.00 81 1008.0
20260506140540 18 178 4.8 11.3 0.00 0.00 0.00 80 1007.9
20260506140050 18 176 4.8 14.5 0.00 0.00 0.00 80 1007.8
20260506135538 18 200 6.4 16.1 0.00 0.00 0.00 79 1007.8
20260506135039 18 178 9.7 19.3 0.00 0.00 0.00 79 1007.7
20260506134546 18 161 8.0 19.3 0.00 0.00 0.00 79 1007.8
20260506134039 18 175 6.4 17.7 0.00 0.00 0.00 79 1007.8
20260506133540 18 160 4.8 12.9 0.00 0.00 0.00 80 1007.7
20260506133044 18 146 4.8 14.5 0.00 0.00 0.00 80 1007.5
20260506132543 17 193 4.8 14.5 0.00 0.00 0.00 81 1007.6
20260506132040 17 150 4.8 14.5 0.00 0.00 0.00 80 1007.5
20260506131552 17 175 6.4 12.9 0.00 0.00 0.00 80 1007.4
20260506131040 17 175 6.4 14.5 0.00 0.00 0.00 80 1007.2
20260506130540 17 170 4.8 14.5 0.00 0.00 0.00 81 1007.3
20260506130046 17 169 6.4 12.9 0.00 0.00 0.00 81 1007.5
20260506125540 17 150 3.2 12.9 0.00 0.00 0.00 81 1007.6
20260506125040 17 159 3.2 11.3 0.00 0.00 0.00 81 1007.5
20260506124540 17 129 4.8 11.3 0.00 0.00 0.00 81 1007.6
20260506124040 17 138 1.6 9.7 0.00 0.00 0.00 81 1007.7
20260506123537 17 165 1.6 11.3 0.00 0.00 0.00 82 1007.7
20260506123051 17 153 3.2 11.3 0.00 0.00 0.00 81 1007.7
20260506122536 17 225 3.2 12.9 0.00 0.00 0.00 81 1007.8
20260506122040 17 190 4.8 12.9 0.00 0.00 0.00 81 1007.8
20260506121558 17 180 3.2 16.1 0.00 0.00 0.00 81 1007.8
20260506121043 17 224 4.8 16.1 0.00 0.00 0.00 81 1007.9
20260506120539 17 178 1.6 14.5 0.00 0.00 0.00 81 1008.0
20260506120053 17 159 4.8 14.5 0.00 0.00 0.00 81 1008.1
20260506115541 17 180 8.0 17.7 0.00 0.00 0.00 81 1007.9
20260506115039 17 168 6.4 17.7 0.00 0.00 0.00 82 1007.8
20260506114553 17 200 4.8 14.5 0.00 0.00 0.00 82 1007.7
20260506114037 16 265 4.8 12.9 0.00 0.00 0.00 82 1007.8
20260506113537 16 194 3.2 16.1 0.00 0.00 0.00 82 1007.8
20260506113049 16 155 6.4 16.1 0.00 0.00 0.00 82 1007.7
20260506112537 16 146 4.8 14.5 0.00 0.00 0.00 82 1007.6
20260506112039 16 171 6.4 16.1 0.00 0.00 0.00 82 1007.5
20260506111552 16 190 4.8 16.1 0.00 0.00 0.00 82 1007.8
20260506111040 16 153 6.4 14.5 0.00 0.00 0.00 82 1007.7
20260506110539 16 145 6.4 14.5 0.00 0.00 0.00 83 1007.7
20260506110050 16 184 3.2 8.0 0.00 0.00 0.00 83 1007.8
20260506105541 16 159 3.2 9.7 0.00 0.00 0.00 83 1007.8
20260506105042 16 150 4.8 9.7 0.00 0.00 0.00 83 1007.7
20260506104556 16 146 1.6 9.7 0.00 0.00 0.00 83 1007.8
20260506104040 16 153 3.2 9.7 0.00 0.00 0.00 83 1007.7
20260506103540 16 109 1.6 8.0 0.00 0.00 0.00 83 1007.5
20260506103054 16 160 1.6 8.0 0.00 0.00 0.00 83 1007.6
20260506102537 16 177 1.6 8.0 0.00 0.00 0.00 83 1007.6
20260506102040 16 134 1.6 6.4 0.00 0.00 0.00 83 1007.7
20260506101549 15 122 0.0 4.8 0.00 0.00 0.00 83 1007.7
20260506101040 15 159 1.6 6.4 0.00 0.00 0.00 83 1007.5
20260506100540 15 142 1.6 9.7 0.00 0.00 0.00 84 1007.5
20260506100105 15 151 1.6 9.7 0.00 0.00 0.00 84 1007.6
20260506095541 15 136 3.2 8.0 0.00 0.00 0.00 85 1007.7
20260506095040 14 0 0.0 6.4 0.00 0.00 0.00 85 1007.6
20260506094600 14 187 0.0 8.0 0.00 0.00 0.00 85 1007.7
20260506094039 14 151 1.6 8.0 0.00 0.00 0.00 85 1007.6
20260506093540 13 178 0.0 3.2 0.00 0.00 0.00 85 1007.5
20260506093056 13 0 0.0 3.2 0.00 0.00 0.00 86 1007.4
20260506092540 13 0 0.0 3.2 0.00 0.00 0.00 86 1007.4
20260506092042 13 0 0.0 3.2 0.00 0.00 0.00 84 1007.5
20260506091555 13 0 0.0 1.6 0.00 0.00 0.00 84 1007.4
20260506091040 13 0 0.0 1.6 0.00 0.00 0.00 83 1007.4
20260506090541 14 0 0.0 0.0 0.00 0.00 0.00 82 1007.4
20260506090048 14 0 0.0 4.8 0.00 0.00 0.00 82 1007.5
20260506085540 14 0 0.0 4.8 0.00 0.00 0.00 83 1007.4
20260506085040 14 0 0.0 4.8 0.00 0.00 0.00 83 1007.6
20260506084555 14 0 0.0 1.6 0.00 0.00 0.00 83 1007.6
20260506084040 14 0 0.0 1.6 0.00 0.00 0.00 82 1007.6
20260506083540 14 0 0.0 1.6 0.00 0.00 0.00 82 1007.7
20260506083050 14 0 0.0 1.6 0.00 0.00 0.00 81 1007.6
20260506082537 15 0 0.0 1.6 0.00 0.00 0.00 81 1007.7
20260506082040 15 0 0.0 1.6 0.00 0.00 0.00 81 1007.6
20260506081549 15 0 0.0 1.6 0.00 0.00 0.00 81 1007.7
20260506081040 15 0 0.0 1.6 0.00 0.00 0.00 82 1007.7
20260506080541 15 0 0.0 3.2 0.00 0.00 0.00 83 1007.6
20260506073055 13 0 0.0 1.6 0.00 0.00 0.00 83 1007.6
20260506072540 13 0 0.0 0.0 0.00 0.00 0.00 82 1007.6
20260506072037 14 0 0.0 0.0 0.00 0.00 0.00 82 1007.7
20260506071556 14 0 0.0 0.0 0.00 0.00 0.00 81 1007.7
20260506071041 14 0 0.0 3.2 0.00 0.00 0.00 81 1007.8
20260506070541 14 0 0.0 3.2 0.00 0.00 0.00 80 1007.7
20260506062040 17 219 0.0 1.6 0.00 0.00 0.00 70 1008.0
20260506061551 17 0 0.0 1.6 0.00 0.00 0.00 69 1007.9
20260506061040 17 0 0.0 1.6 0.00 0.00 0.00 69 1008.0
20260506060542 17 0 0.0 3.2 0.00 0.00 0.00 68 1008.1
20260506051036 18 173 1.6 9.7 0.00 0.00 0.00 65 1008.2
20260506050538 18 160 3.2 14.5 0.00 0.00 0.00 64 1008.2
20260506045038 18 144 4.8 12.9 0.00 0.00 0.00 63 1008.3
20260506044548 19 0 3.2 12.9 0.00 0.00 0.00 63 1008.3
20260506044038 19 181 6.4 12.9 0.00 0.00 0.00 63 1008.3
20260506043537 19 165 6.4 12.9 0.00 0.00 0.00 63 1008.2
20260506043044 18 190 3.2 9.7 0.00 0.00 0.00 63 1008.2
20260506042536 18 179 4.8 9.7 0.00 0.00 0.00 63 1008.1
20260506042038 18 205 3.2 9.7 0.00 0.00 0.00 63 1008.1
20260506041542 19 190 3.2 11.3 0.00 0.00 0.00 63 1008.2
20260506041036 19 163 1.6 11.3 0.00 0.00 0.00 63 1008.2
20260506040538 19 187 1.6 9.7 0.00 0.00 0.00 62 1008.2
20260506040040 19 204 3.2 11.3 0.00 0.00 0.00 61 1008.2
20260506035538 19 207 3.2 14.5 0.00 0.00 0.00 60 1008.1
20260506035040 20 200 3.2 16.1 0.00 0.00 0.00 60 1008.0
20260506034547 20 158 6.4 16.1 0.00 0.00 0.00 58 1008.0
20260506034042 20 184 6.4 16.1 0.00 0.00 0.00 57 1008.1
20260506033540 20 152 6.4 16.1 0.00 0.00 0.00 56 1008.1
20260506033045 21 160 6.4 16.1 0.00 0.00 0.00 54 1008.1
20260506032537 21 164 3.2 14.5 0.00 0.00 0.00 53 1008.0
20260506032043 21 213 6.4 14.5 0.00 0.00 0.00 52 1008.0
20260506031547 21 163 6.4 11.3 0.00 0.00 0.00 50 1008.0
20260506031038 21 175 4.8 11.3 0.00 0.00 0.00 51 1008.0
20260506030539 22 205 6.4 11.3 0.00 0.00 0.00 49 1008.0
20260506030059 22 145 4.8 14.5 0.00 0.00 0.00 48 1008.0
20260506025540 22 169 4.8 14.5 0.00 0.00 0.00 47 1008.0
20260506025040 22 212 6.4 14.5 0.00 0.00 0.00 47 1008.0
20260506024556 22 199 3.2 14.5 0.00 0.00 0.00 46 1007.9
20260506024042 22 176 4.8 14.5 0.00 0.00 0.00 46 1007.9
20260506023541 22 167 3.2 9.7 0.00 0.00 0.00 46 1007.9
20260506023050 22 167 1.6 12.9 0.00 0.00 0.00 46 1007.8
20260506022540 22 207 6.4 12.9 0.00 0.00 0.00 45 1007.8
20260506022040 22 191 4.8 9.7 0.00 0.00 0.00 45 1007.7
20260506021559 22 184 3.2 9.7 0.00 0.00 0.00 45 1007.7
20260506021041 22 183 3.2 12.9 0.00 0.00 0.00 45 1007.7
20260506020540 22 191 3.2 12.9 0.00 0.00 0.00 44 1007.7
20260506020048 22 169 1.6 11.3 0.00 0.00 0.00 45 1007.7
20260506015540 22 189 3.2 8.0 0.00 0.00 0.00 45 1007.7
20260506015042 22 257 1.6 11.3 0.00 0.00 0.00 45 1007.7
20260506014600 22 198 1.6 12.9 0.00 0.00 0.00 44 1007.6
20260506014041 22 194 1.6 12.9 0.00 0.00 0.00 44 1007.6
20260506013540 22 272 4.8 12.9 0.00 0.00 0.00 44 1007.5
20260506013056 22 161 3.2 9.7 0.00 0.00 0.00 44 1007.5
20260506012540 22 185 1.6 9.7 0.00 0.00 0.00 44 1007.3
20260506012040 22 188 3.2 9.7 0.00 0.00 0.00 43 1007.3
20260506011552 22 186 3.2 8.0 0.00 0.00 0.00 44 1007.3
20260506011040 22 0 0.0 8.0 0.00 0.00 0.00 44 1007.3
20260506010541 23 324 1.6 9.7 0.00 0.00 0.00 44 1007.4
20260506010056 23 0 0.0 11.3 0.00 0.00 0.00 43 1007.3
20260506005541 23 198 4.8 14.5 0.00 0.00 0.00 42 1007.2
20260506005040 23 212 3.2 14.5 0.00 0.00 0.00 43 1007.1
20260506004551 23 174 3.2 12.9 0.00 0.00 0.00 43 1007.1
20260506004040 23 168 3.2 11.3 0.00 0.00 0.00 42 1007.0
20260506003540 23 166 4.8 12.9 0.00 0.00 0.00 42 1007.0
20260506003049 23 213 3.2 12.9 0.00 0.00 0.00 42 1006.9
20260506002540 23 204 3.2 17.7 0.00 0.00 0.00 42 1006.8
20260506002040 23 264 3.2 17.7 0.00 0.00 0.00 41 1006.7
20260506001546 23 142 3.2 17.7 0.00 0.00 0.00 42 1006.7
20260506001040 24 232 3.2 20.9 0.00 0.00 0.00 41 1006.5
20260506000537 24 255 6.4 20.9 0.00 0.00 0.00 41 1006.6
20260506000047 24 257 4.8 16.1 0.00 0.00 0.00 40 1006.5
20260505235537 24 252 3.2 16.1 0.00 0.00 0.00 41 1006.4
20260505235040 24 272 1.6 19.3 0.00 0.00 0.00 41 1006.4
20260505234549 24 256 4.8 19.3 0.00 0.00 0.00 40 1006.2
20260505234041 24 231 6.4 27.4 0.00 0.00 0.00 40 1006.2
20260505233540 24 200 6.4 27.4 0.00 0.00 0.00 39 1006.2
20260505233045 24 311 3.2 19.3 0.00 0.00 0.00 41 1006.0
20260505232541 24 196 3.2 12.9 0.00 0.00 0.00 41 1005.9
20260505232041 24 148 3.2 12.9 0.00 0.00 0.00 41 1005.9
20260505231548 24 287 4.8 12.9 0.00 0.00 0.00 40 1005.9
20260505231040 24 244 3.2 14.5 0.00 0.00 0.00 40 1005.8
20260505230540 25 165 4.8 14.5 0.00 0.00 0.00 39 1005.8
20260505230051 25 302 0.0 11.3 0.00 0.00 0.00 41 1005.7
20260505225541 25 197 4.8 11.3 0.00 0.00 0.00 40 1005.7
20260505225041 24 242 1.6 16.1 0.00 0.00 0.00 41 1005.5
20260505224547 25 239 1.6 16.1 0.00 0.00 0.00 41 1005.4
20260505224041 25 251 6.4 16.1 0.00 0.00 0.00 40 1005.3
20260505223541 25 273 3.2 9.7 0.00 0.00 0.00 41 1005.4
20260505223050 25 198 1.6 12.9 0.00 0.00 0.00 40 1005.3
20260505222541 25 197 4.8 24.1 0.00 0.00 0.00 39 1005.2
20260505222041 25 264 3.2 24.1 0.00 0.00 0.00 39 1005.3
20260505221558 25 134 3.2 20.9 0.00 0.00 0.00 40 1005.2
20260505221041 25 228 8.0 20.9 0.00 0.00 0.00 38 1005.1
20260505220540 25 169 6.4 14.5 0.00 0.00 0.00 40 1005.1
20260505220049 25 227 6.4 17.7 0.00 0.00 0.00 39 1005.0
20260505215540 26 151 4.8 17.7 0.00 0.00 0.00 39 1005.0
20260505215040 26 279 6.4 29.0 0.00 0.00 0.00 38 1005.1
20260505214548 26 216 12.9 29.0 0.00 0.00 0.00 37 1005.0
20260505214041 26 248 1.6 27.4 0.00 0.00 0.00 41 1004.8
20260505213542 26 215 4.8 27.4 0.00 0.00 0.00 39 1004.7
20260505213051 26 207 6.4 25.7 0.00 0.00 0.00 39 1004.7
20260505212541 26 254 6.4 17.7 0.00 0.00 0.00 39 1004.7
20260505212041 26 243 8.0 22.5 0.00 0.00 0.00 37 1004.9
20260505211549 26 189 6.4 22.5 0.00 0.00 0.00 35 1004.8
20260505211039 26 260 6.4 20.9 0.00 0.00 0.00 36 1004.6
20260505210541 27 248 6.4 19.3 0.00 0.00 0.00 39 1004.6
20260505210048 26 270 8.0 19.3 0.00 0.00 0.00 39 1004.7
20260505205543 26 207 3.2 25.7 0.00 0.00 0.00 39 1004.6
20260505205040 27 269 4.8 29.0 0.00 0.00 0.00 39 1004.6
20260505204549 27 217 12.9 29.0 0.00 0.00 0.00 39 1004.7
20260505204041 27 184 6.4 20.9 0.00 0.00 0.00 39 1004.6
20260505203540 27 278 6.4 20.9 0.00 0.00 0.00 42 1004.7
20260505203051 27 236 6.4 20.9 0.00 0.00 0.00 39 1004.7
20260505202539 27 234 6.4 19.3 0.00 0.00 0.00 41 1004.9
20260505202041 27 284 4.8 22.5 0.00 0.00 0.00 40 1004.8
20260505201553 27 260 6.4 22.5 0.00 0.00 0.00 42 1005.0
20260505201040 27 165 9.7 29.0 0.00 0.00 0.00 39 1004.9
20260505200540 27 221 9.7 29.0 0.00 0.00 0.00 39 1005.1
20260505200054 27 280 12.9 25.7 0.00 0.00 0.00 38 1005.2
20260505195540 27 181 11.3 37.0 0.00 0.00 0.00 38 1005.1
20260505195041 27 257 8.0 37.0 0.00 0.00 0.00 37 1005.1
20260505194556 27 163 9.7 27.4 0.00 0.00 0.00 42 1005.3
20260505194043 27 252 9.7 32.2 0.00 0.00 0.00 37 1005.2
20260505193538 27 265 14.5 32.2 0.00 0.00 0.00 36 1005.4
20260505193114 27 286 8.0 29.0 0.00 0.00 0.00 40 1005.4
20260505192538 27 167 8.0 30.6 0.00 0.00 0.00 36 1005.5
20260505192038 27 321 9.7 41.8 0.00 0.00 0.00 37 1005.6
20260505191558 27 262 12.9 41.8 0.00 0.00 0.00 38 1005.6
20260505191039 27 221 14.5 41.8 0.00 0.00 0.00 36 1005.7
20260505190538 27 265 17.7 35.4 0.00 0.00 0.00 36 1005.6
20260505190045 27 250 11.3 35.4 0.00 0.00 0.00 39 1005.6
20260505185538 27 234 11.3 40.2 0.00 0.00 0.00 37 1005.6
20260505185036 27 242 9.7 41.8 0.00 0.00 0.00 39 1005.5
20260505184556 27 238 11.3 41.8 0.00 0.00 0.00 36 1006.0
20260505184041 27 232 8.0 37.0 0.00 0.00 0.00 38 1005.9
20260505183539 27 246 11.3 37.0 0.00 0.00 0.00 39 1006.1
20260505183043 27 284 16.1 33.8 0.00 0.00 0.00 39 1006.2
20260505182538 27 254 11.3 38.6 0.00 0.00 0.00 39 1006.4
20260505182036 26 229 9.7 40.2 0.00 0.00 0.00 40 1006.5
20260505181549 27 285 17.7 41.8 0.00 0.00 0.00 42 1006.4
20260505181038 27 275 9.7 41.8 0.00 0.00 0.00 40 1006.5
20260505180538 26 228 11.3 40.2 0.00 0.00 0.00 44 1006.2
20260505180052 27 265 11.3 40.2 0.00 0.00 0.00 46 1006.5
20260505175536 26 263 12.9 40.2 0.00 0.00 0.00 44 1006.4
20260505175039 26 175 9.7 35.4 0.00 0.00 0.00 45 1006.4
20260505174545 26 283 11.3 32.2 0.00 0.00 0.00 46 1006.6
20260505174040 26 245 8.0 37.0 0.00 0.00 0.00 46 1006.4
20260505173535 26 209 9.7 37.0 0.00 0.00 0.00 45 1006.6
20260505173046 26 300 12.9 37.0 0.00 0.00 0.00 44 1006.7
20260505172538 26 246 9.7 22.5 0.00 0.00 0.00 45 1006.5
20260505172038 26 261 6.4 27.4 0.00 0.00 0.00 47 1006.7
20260505171548 26 212 14.5 29.0 0.00 0.00 0.00 46 1006.6
20260505171038 26 236 8.0 29.0 0.00 0.00 0.00 46 1006.5
20260505170537 26 158 6.4 20.9 0.00 0.00 0.00 49 1006.7
20260505170043 26 283 6.4 33.8 0.00 0.00 0.00 47 1006.7
20260505165535 26 250 6.4 33.8 0.00 0.00 0.00 46 1006.8
20260505165035 26 237 8.0 29.0 0.00 0.00 0.00 48 1006.8
20260505164549 26 252 6.4 29.0 0.00 0.00 0.00 46 1007.0
20260505164035 26 185 6.4 27.4 0.00 0.00 0.00 50 1007.2
20260505163539 25 207 9.7 27.4 0.00 0.00 0.00 52 1007.2
20260505163045 25 164 8.0 27.4 0.00 0.00 0.00 49 1007.4
20260505162538 25 130 11.3 25.7 0.00 0.00 0.00 49 1007.4
20260505162037 25 163 6.4 24.1 0.00 0.00 0.00 49 1007.5
20260505161546 25 205 9.7 25.7 0.00 0.00 0.00 52 1007.5
20260505161038 25 208 11.3 25.7 0.00 0.00 0.00 53 1007.8
20260505160536 25 248 9.7 25.7 0.00 0.00 0.00 51 1007.7
20260505153101 24 170 8.0 24.1 0.00 0.00 0.00 52 1008.0
20260505152538 23 180 11.3 27.4 0.00 0.00 0.00 57 1008.1
20260505152037 23 169 8.0 27.4 0.00 0.00 0.00 55 1008.2
20260505151547 23 182 9.7 27.4 0.00 0.00 0.00 54 1008.3
20260505151041 23 191 9.7 20.9 0.00 0.00 0.00 54 1008.4
20260505150539 23 213 4.8 14.5 0.00 0.00 0.00 56 1008.4